Tracking 18850 objects as of 22-Nov-2017
HD Live streaming from Space Station
objects crossing your sky now

FENGYUN 1C DEB

Track FENGYUN 1C DEB now!
10-day predictions


NORAD ID: 31327
Int'l Code: 1999-025BQF
Perigee: 554.7 km
Apogee: 805.3 km
Inclination: 99.0 °
Period: 98.2 minutes
Semi major axis: 7050 km
RCS: 0.0089 m2 (small)
Launch date: May 10, 1999
Source: People's Republic of China (PRC)
Launch site: Taiyaun Space Center, China (TSC)

Note: This is SATELLITE DEBRIS
aabbcc
Your satellite tracking list
Your tracking list is empty




NASA's NSSDC Master Catalog

Two Line Element Set (TLE):
1 31327U 99025BQF 17325.76147956  .00000706  00000-0  11151-3 0  9999
2 31327  99.0225 324.2528 0177741 194.7290 164.8694 14.66316076567499
Source of the keplerian elements: AFSPC